Weather History for KMQB - December, 2013

Change the Weather History Date:

Monday, December 9, 2013

  Actual Average (KBRL) Record (KBRL)
Temperature  
Mean Temperature 11 °F 31 °F  
Max Temperature 22 °F 39 °F 66 °F (1940)
Min Temperature 0 °F 23 °F -12 °F (1958)
Degree Days  
Heating Degree Days 54 34  
Month to date heating degree days 293  
Since 1 July heating degree days 1366  
Cooling Degree Days 0 0  
Month to date cooling degree days 0  
Year to date cooling degree days 1207  
Moisture  
Dew Point 9 °F    
Average Humidity 80    
Maximum Humidity 91    
Minimum Humidity 71    
Precipitation  
Precipitation 0.00 in 0.07 in 2.05 in (2003)
Month to date precipitation 0.69  
Year to date precipitation 37.08  
Sea Level Pressure  
Sea Level Pressure 30.23 in    
Wind  
Wind Speed 13 mph (West)    
Max Wind Speed 20 mph    
Max Gust Speed 24 mph    
Visibility 10 miles    
Events Snow    
T = Trace of Precipitation, MM = Missing Value Source: NWS Daily Summary

Daily Weather History Graph

Daily Weather History Graph

Search for Another Location

Airport or City:

Trip Planner

Search our weather history database for the weather conditions in past years. The results will help you decide how hot, cold, wet, or windy it might be!

Date:

Astronomy

Dec. 09, 2013 Rise Set
Actual Time 7:14 AM CST 4:35 PM CST
Civil Twilight 6:43 AM CST 5:06 PM CST
Nautical Twilight 6:09 AM CST 5:40 PM CST
Astronomical Twilight 5:36 AM CST 6:13 PM CST
Moon 12:06 PM CST (12/9) No Moon Set
Length of Visible Light 10h 22m
Length of Day
9h 21m
Waxing Crescent, 51% of the Moon is Illuminated
Dec 9
Waxing Crescent
Dec 17
Full
Dec 25
Last Quarter
Jan 1
New
Jan 7
First Quarter

Hourly Weather History & Observations

Time (CST) Temp. Windchill Dew Point Humidity Pressure Visibility Wind Dir Wind Speed Gust Speed Precip Events Conditions
12:15 AM 22.8 °F 9.9 °F 20.3 °F 90% 30.05 in 10.0 mi West 15.0 mph 21.9 mph N/A   Overcast
12:35 AM 22.5 °F 8.9 °F 20.1 °F 91% 30.05 in 7.0 mi West 16.1 mph 20.7 mph N/A   Overcast
12:55 AM 22.1 °F 9.5 °F 19.6 °F 90% 30.06 in 7.0 mi West 13.8 mph - N/A   Overcast
1:15 AM 21.9 °F 9.2 °F 19.2 °F 89% 30.06 in 10.0 mi West 13.8 mph - N/A   Overcast
1:35 AM 21.7 °F 8.5 °F 18.9 °F 89% 30.07 in 10.0 mi West 15.0 mph 19.6 mph N/A   Overcast
1:55 AM 21.6 °F 7.8 °F 18.9 °F 89% 30.08 in 7.0 mi West 16.1 mph 19.6 mph N/A Snow Light Snow
2:15 AM 21.2 °F 8.9 °F 18.3 °F 89% 30.09 in 10.0 mi West 12.7 mph - N/A   Overcast
2:35 AM 20.8 °F 6.4 °F 17.1 °F 85% 30.08 in 10.0 mi West 17.3 mph 24.2 mph N/A   Overcast
2:55 AM 20.3 °F 6.1 °F 17.2 °F 88% 30.10 in 10.0 mi West 16.1 mph 24.2 mph N/A   Overcast
3:15 AM 20.3 °F 6.1 °F 16.7 °F 86% 30.12 in 10.0 mi West 16.1 mph 21.9 mph N/A   Overcast
3:35 AM 20.1 °F 5.4 °F 16.2 °F 85% 30.13 in 10.0 mi West 17.3 mph - N/A   Overcast
3:55 AM 19.4 °F 3.6 °F 15.3 °F 84% 30.12 in 10.0 mi WNW 19.6 mph - N/A   Overcast
4:35 AM 17.2 °F 5.2 °F 13.1 °F 84% 30.12 in 10.0 mi WNW 10.4 mph - N/A   Scattered Clouds
4:55 AM 16.5 °F 2.4 °F 12.7 °F 85% 30.13 in 10.0 mi West 13.8 mph - N/A   Clear
5:15 AM 16.2 °F 1.9 °F 12.2 °F 84% 30.15 in 10.0 mi West 13.8 mph - N/A   Clear
5:35 AM 16.2 °F 1.3 °F 12.2 °F 84% 30.16 in 10.0 mi West 15.0 mph - N/A   Clear
5:55 AM 15.6 °F 0.6 °F 12.0 °F 86% 30.16 in 10.0 mi West 15.0 mph - N/A   Clear
6:15 AM 14.9 °F 0.3 °F 11.3 °F 86% 30.18 in 10.0 mi West 13.8 mph - N/A   Clear
6:35 AM 14.4 °F 0.9 °F 10.8 °F 86% 30.19 in 10.0 mi West 11.5 mph - N/A   Clear
6:55 AM 13.5 °F -0.2 °F 9.9 °F 86% 30.19 in 10.0 mi West 11.5 mph - N/A   Clear
7:15 AM 12.2 °F -0.2 °F 8.6 °F 85% 30.19 in 10.0 mi West 9.2 mph - N/A   Clear
7:35 AM 12.0 °F -0.4 °F 8.6 °F 86% 30.20 in 10.0 mi West 9.2 mph - N/A   Clear
7:55 AM 12.2 °F -0.2 °F 8.6 °F 85% 30.21 in 10.0 mi West 9.2 mph - N/A   Clear
8:15 AM 13.6 °F 1.6 °F 9.9 °F 85% 30.20 in 10.0 mi West 9.2 mph - N/A   Clear
8:35 AM 14.0 °F 0.5 °F 10.2 °F 85% 30.20 in 10.0 mi West 11.5 mph - N/A   Clear
8:55 AM 14.9 °F 1.6 °F 10.4 °F 82% 30.22 in 10.0 mi WNW 11.5 mph - N/A   Clear
9:15 AM 15.6 °F 0.6 °F 10.4 °F 80% 30.22 in 10.0 mi WNW 15.0 mph - N/A   Clear
9:35 AM 15.8 °F 0.9 °F 10.2 °F 79% 30.23 in 10.0 mi WNW 15.0 mph - N/A   Clear
9:55 AM 15.6 °F 0.6 °F 10.4 °F 80% 30.26 in 10.0 mi WNW 15.0 mph - N/A   Clear
10:15 AM 17.1 °F 2.5 °F 11.1 °F 77% 30.28 in 10.0 mi West 15.0 mph 18.4 mph N/A   Clear
10:35 AM 16.7 °F 3.2 °F 10.4 °F 76% 30.29 in 10.0 mi West 12.7 mph - N/A   Clear
10:55 AM 16.5 °F 1.3 °F 9.9 °F 75% 30.29 in 10.0 mi West 16.1 mph - N/A   Clear
11:15 AM 16.5 °F 1.3 °F 9.9 °F 75% 30.29 in 10.0 mi West 16.1 mph - N/A   Clear
11:35 AM 16.2 °F 2.5 °F 9.5 °F 75% 30.29 in 10.0 mi West 12.7 mph - N/A   Clear
11:55 AM 16.7 °F 2.6 °F 10.2 °F 76% 30.29 in 10.0 mi West 13.8 mph - N/A   Clear
12:15 PM 17.1 °F 3.0 °F 10.8 °F 76% 30.29 in 10.0 mi West 13.8 mph - N/A   Scattered Clouds
12:35 PM 18.0 °F 3.6 °F 10.9 °F 74% 30.29 in 10.0 mi West 15.0 mph - N/A   Scattered Clouds
12:55 PM 18.1 °F 4.4 °F 11.1 °F 74% 30.28 in 10.0 mi WSW 13.8 mph 19.6 mph N/A   Scattered Clouds
1:15 PM 17.6 °F 3.7 °F 10.4 °F 73% 30.28 in 10.0 mi West 13.8 mph 19.6 mph N/A   Scattered Clouds
1:35 PM 17.6 °F 3.7 °F 11.8 °F 78% 30.28 in 4.0 mi West 13.8 mph - N/A Snow Light Snow
1:55 PM 18.5 °F 4.3 °F 11.1 °F 73% 30.28 in 10.0 mi West 15.0 mph - N/A   Mostly Cloudy
2:15 PM 18.1 °F 3.4 °F 10.4 °F 72% 30.28 in 10.0 mi West 16.1 mph - N/A   Mostly Cloudy
2:35 PM 17.6 °F 3.7 °F 10.0 °F 72% 30.28 in 10.0 mi West 13.8 mph - N/A   Scattered Clouds
2:55 PM 17.2 °F 3.3 °F 10.2 °F 74% 30.28 in 10.0 mi WNW 13.8 mph - N/A   Clear
3:15 PM 16.3 °F 1.6 °F 9.3 °F 74% 30.27 in 10.0 mi WNW 15.0 mph - N/A   Clear
3:35 PM 15.6 °F 1.2 °F 7.7 °F 71% 30.28 in 10.0 mi West 13.8 mph - N/A   Clear
3:55 PM 15.1 °F 1.8 °F 7.5 °F 72% 30.27 in 10.0 mi West 11.5 mph - N/A   Clear
4:15 PM 14.5 °F 3.6 °F 7.7 °F 74% 30.28 in 10.0 mi WNW 8.1 mph - N/A   Clear
4:35 PM 14.0 °F 2.9 °F 7.5 °F 75% 30.30 in 10.0 mi West 8.1 mph - N/A   Clear
4:55 PM 13.6 °F 2.5 °F 6.8 °F 74% 30.30 in 10.0 mi WNW 8.1 mph - N/A   Clear
5:15 PM 13.1 °F 1.8 °F 6.4 °F 75% 30.30 in 10.0 mi West 8.1 mph - N/A   Clear
5:35 PM 13.1 °F 4.0 °F 6.4 °F 75% 30.30 in 10.0 mi West 5.8 mph - N/A   Clear
5:55 PM 12.9 °F 2.6 °F 6.4 °F 75% 30.30 in 10.0 mi West 6.9 mph - N/A   Clear
6:15 PM 12.2 °F 2.9 °F 6.3 °F 77% 30.30 in 10.0 mi WNW 5.8 mph - N/A   Clear
6:35 PM 12.0 °F 1.5 °F 5.5 °F 75% 30.30 in 10.0 mi WNW 6.9 mph - N/A   Clear
6:55 PM 11.1 °F 1.7 °F 5.5 °F 78% 30.30 in 10.0 mi NNW 5.8 mph - N/A   Clear
7:15 PM 9.5 °F 3.0 °F 4.5 °F 80% 30.30 in 10.0 mi NW 3.5 mph - N/A   Clear
7:35 PM 8.2 °F 1.6 °F 4.1 °F 83% 30.30 in 10.0 mi WNW 3.5 mph - N/A   Clear
7:55 PM 7.7 °F 1.0 °F 3.2 °F 82% 30.30 in 10.0 mi WNW 3.5 mph - N/A   Clear
8:15 PM 4.6 °F - 0.5 °F 83% 30.29 in 10.0 mi Calm Calm - N/A   Clear
8:35 PM 3.9 °F -6.9 °F -0.2 °F 83% 30.29 in 10.0 mi West 5.8 mph - N/A   Clear
8:55 PM 2.1 °F -7.4 °F -2.2 °F 82% 30.27 in 10.0 mi WSW 4.6 mph - N/A   Clear
9:15 PM 3.6 °F -7.3 °F -1.3 °F 80% 30.27 in 10.0 mi WSW 5.8 mph - N/A   Clear
9:35 PM 3.2 °F -10.3 °F -1.3 °F 82% 30.27 in 10.0 mi West 8.1 mph - N/A   Clear
9:55 PM 1.0 °F -10.3 °F -3.3 °F 82% 30.27 in 10.0 mi WSW 5.8 mph - N/A   Clear
10:15 PM 3.2 °F -10.3 °F -1.5 °F 81% 30.27 in 10.0 mi West 8.1 mph - N/A   Clear
10:35 PM 0.7 °F -9.1 °F -4.0 °F 81% 30.28 in 10.0 mi SW 4.6 mph - N/A   Clear
10:55 PM 3.4 °F -5.9 °F -1.3 °F 81% 30.27 in 10.0 mi SW 4.6 mph - N/A   Clear
11:15 PM 3.2 °F -7.8 °F -2.2 °F 78% 30.28 in 10.0 mi WSW 5.8 mph - N/A   Clear
11:35 PM 3.7 °F -8.4 °F -1.7 °F 78% 30.28 in 10.0 mi WSW 6.9 mph - N/A   Clear
11:55 PM 3.2 °F -10.3 °F -1.8 °F 80% 30.28 in 10.0 mi SW 8.1 mph - N/A   Clear